Time,TemperatureF,DewpointF,PressureIn,WindDirection,WindDirectionDegrees,WindSpeedMPH,WindSpeedGustMPH,Humidity,HourlyPrecipIn,Conditions,Clouds,dailyrainin,SoftwareType,DateUTC
2013-06-09 00:00:00,69.6,67.5,30.01,North,354,0.0,0.0,93,0.00,,,0.02,Wunderground v.1.13,2013-06-09 04:00:00,
2013-06-09 00:02:00,69.6,67.5,30.02,North,354,0.0,0.0,93,0.00,,,0.00,Wunderground v.1.13,2013-06-09 04:02:00,
2013-06-09 00:06:00,69.6,67.5,30.02,North,354,0.0,0.0,93,0.00,,,0.00,Wunderground v.1.13,2013-06-09 04:06:00,
2013-06-09 00:12:00,69.4,67.3,30.02,North,354,0.0,0.0,93,0.00,,,0.00,Wunderground v.1.13,2013-06-09 04:12:00,
2013-06-09 00:14:00,69.4,67.3,30.02,North,354,0.0,0.0,93,0.00,,,0.00,Wunderground v.1.13,2013-06-09 04:14:00,
2013-06-09 00:16:00,69.4,67.3,30.02,North,354,0.0,0.0,93,0.00,,,0.00,Wunderground v.1.13,2013-06-09 04:16:00,
2013-06-09 00:20:00,69.4,67.3,30.02,North,354,0.0,0.0,93,0.00,,,0.00,Wunderground v.1.13,2013-06-09 04:20:00,
2013-06-09 00:26:00,69.3,67.2,30.02,North,354,0.0,0.0,93,0.00,,,0.00,Wunderground v.1.13,2013-06-09 04:26:00,
2013-06-09 00:32:00,69.3,67.2,30.02,North,354,0.0,0.0,93,0.00,,,0.00,Wunderground v.1.13,2013-06-09 04:32:00,
2013-06-09 00:38:00,69.3,67.2,30.02,North,354,0.0,0.0,93,0.00,,,0.00,Wunderground v.1.13,2013-06-09 04:38:00,
2013-06-09 00:44:00,69.3,67.2,30.02,North,354,0.0,0.0,93,0.00,,,0.00,Wunderground v.1.13,2013-06-09 04:44:00,
2013-06-09 00:50:00,69.1,67.0,30.01,North,354,0.0,0.0,93,0.00,,,0.00,Wunderground v.1.13,2013-06-09 04:50:00,
2013-06-09 00:56:00,69.1,67.0,30.01,North,354,0.0,0.0,93,0.00,,,0.00,Wunderground v.1.13,2013-06-09 04:56:00,
2013-06-09 01:02:00,69.1,67.3,30.01,North,354,0.0,0.0,94,0.00,,,0.00,Wunderground v.1.13,2013-06-09 05:02:00,
2013-06-09 01:10:00,68.9,67.1,30.01,North,354,0.0,0.0,94,0.00,,,0.00,Wunderground v.1.13,2013-06-09 05:10:00,
2013-06-09 01:16:00,68.9,67.1,30.01,North,354,0.0,0.0,94,0.00,,,0.00,Wunderground v.1.13,2013-06-09 05:16:00,
2013-06-09 01:23:00,68.8,67.0,30.01,North,354,0.0,0.0,94,0.00,,,0.00,Wunderground v.1.13,2013-06-09 05:23:00,
2013-06-09 01:28:00,68.8,67.0,30.01,North,354,0.0,0.0,94,0.00,,,0.00,Wunderground v.1.13,2013-06-09 05:28:00,
2013-06-09 01:34:00,68.8,67.0,30.01,North,354,0.0,0.0,94,0.00,,,0.00,Wunderground v.1.13,2013-06-09 05:34:00,
2013-06-09 01:40:00,68.6,66.8,30.01,North,354,0.0,0.0,94,0.00,,,0.00,Wunderground v.1.13,2013-06-09 05:40:00,
2013-06-09 01:46:00,68.6,66.8,30.01,North,354,0.0,0.0,94,0.00,,,0.00,Wunderground v.1.13,2013-06-09 05:46:00,
2013-06-09 01:54:00,68.4,66.6,30.01,North,354,0.0,0.0,94,0.00,,,0.00,Wunderground v.1.13,2013-06-09 05:54:00,
2013-06-09 02:00:00,68.3,66.5,30.01,North,354,0.0,0.0,94,0.00,,,0.00,Wunderground v.1.13,2013-06-09 06:00:00,
2013-06-09 02:06:00,68.3,66.5,30.01,North,354,0.0,0.0,94,0.00,,,0.00,Wunderground v.1.13,2013-06-09 06:06:00,
2013-06-09 02:12:00,68.1,66.3,30.01,North,354,0.0,0.0,94,0.00,,,0.00,Wunderground v.1.13,2013-06-09 06:12:00,
2013-06-09 02:18:00,68.1,66.3,30.01,North,354,0.0,0.0,94,0.00,,,0.00,Wunderground v.1.13,2013-06-09 06:18:00,
2013-06-09 02:24:00,67.9,66.1,30.01,North,354,0.0,0.0,94,0.00,,,0.00,Wunderground v.1.13,2013-06-09 06:24:00,
2013-06-09 02:30:00,67.9,66.1,30.01,North,354,0.0,0.0,94,0.00,,,0.00,Wunderground v.1.13,2013-06-09 06:30:00,
2013-06-09 02:36:00,67.8,66.0,30.01,North,354,0.0,0.0,94,0.00,,,0.00,Wunderground v.1.13,2013-06-09 06:36:00,
2013-06-09 02:42:00,67.8,66.0,30.01,North,354,0.0,0.0,94,0.00,,,0.00,Wunderground v.1.13,2013-06-09 06:42:00,
2013-06-09 02:48:00,67.6,65.8,30.01,North,354,0.0,0.0,94,0.00,,,0.00,Wunderground v.1.13,2013-06-09 06:48:00,
2013-06-09 02:54:00,67.6,65.8,30.01,North,354,0.0,0.0,94,0.00,,,0.00,Wunderground v.1.13,2013-06-09 06:54:00,
2013-06-09 03:00:00,67.4,65.6,30.01,North,354,0.0,0.0,94,0.00,,,0.00,Wunderground v.1.13,2013-06-09 07:00:00,
2013-06-09 03:06:00,67.4,65.6,30.01,North,354,0.0,0.0,94,0.00,,,0.00,Wunderground v.1.13,2013-06-09 07:06:00,
2013-06-09 03:12:00,67.3,65.5,30.01,North,354,0.0,0.0,94,0.00,,,0.00,Wunderground v.1.13,2013-06-09 07:12:00,
2013-06-09 03:18:00,67.3,65.5,30.01,North,354,0.0,0.0,94,0.00,,,0.00,Wunderground v.1.13,2013-06-09 07:18:00,
2013-06-09 03:24:00,67.1,65.6,30.01,North,354,0.0,0.0,95,0.00,,,0.00,Wunderground v.1.13,2013-06-09 07:24:00,
2013-06-09 03:30:00,67.1,65.6,30.01,North,354,0.0,0.0,95,0.00,,,0.00,Wunderground v.1.13,2013-06-09 07:30:00,
2013-06-09 03:36:00,66.9,65.4,30.01,North,354,0.0,0.0,95,0.00,,,0.00,Wunderground v.1.13,2013-06-09 07:36:00,
2013-06-09 03:42:00,66.9,65.4,30.01,North,354,0.0,0.0,95,0.00,,,0.00,Wunderground v.1.13,2013-06-09 07:42:00,
2013-06-09 03:48:00,66.8,65.3,30.01,North,354,0.0,0.0,95,0.00,,,0.00,Wunderground v.1.13,2013-06-09 07:48:00,
2013-06-09 03:54:00,66.8,65.3,30.01,North,354,0.0,0.0,95,0.00,,,0.00,Wunderground v.1.13,2013-06-09 07:54:00,
2013-06-09 04:00:00,66.6,65.1,30.01,North,354,0.0,0.0,95,0.00,,,0.00,Wunderground v.1.13,2013-06-09 08:00:00,
2013-06-09 04:06:00,66.6,65.1,30.02,North,354,0.0,0.0,95,0.00,,,0.00,Wunderground v.1.13,2013-06-09 08:06:00,
2013-06-09 04:12:00,66.4,64.9,30.02,North,354,0.0,0.0,95,0.00,,,0.00,Wunderground v.1.13,2013-06-09 08:12:00,
2013-06-09 04:18:00,66.4,64.9,30.02,North,354,0.0,0.0,95,0.00,,,0.00,Wunderground v.1.13,2013-06-09 08:18:00,
2013-06-09 04:24:00,66.4,64.9,30.02,North,354,0.0,0.0,95,0.00,,,0.00,Wunderground v.1.13,2013-06-09 08:24:00,
2013-06-09 04:30:00,66.3,64.8,30.02,North,354,0.0,0.0,95,0.00,,,0.00,Wunderground v.1.13,2013-06-09 08:30:00,
2013-06-09 04:36:00,66.3,64.8,30.02,North,354,0.0,0.0,95,0.00,,,0.00,Wunderground v.1.13,2013-06-09 08:36:00,
2013-06-09 04:42:00,66.3,64.8,30.02,North,354,0.0,0.0,95,0.00,,,0.00,Wunderground v.1.13,2013-06-09 08:42:00,
2013-06-09 04:48:00,66.1,64.6,30.02,North,354,0.0,0.0,95,0.00,,,0.00,Wunderground v.1.13,2013-06-09 08:48:00,
2013-06-09 04:56:00,66.1,64.6,30.02,North,354,0.0,0.0,95,0.00,,,0.00,Wunderground v.1.13,2013-06-09 08:56:00,
2013-06-09 05:02:00,66.1,64.6,30.03,North,354,0.0,0.0,95,0.00,,,0.00,Wunderground v.1.13,2013-06-09 09:02:00,
2013-06-09 05:08:00,66.0,64.5,30.03,North,354,0.0,0.0,95,0.00,,,0.00,Wunderground v.1.13,2013-06-09 09:08:00,
2013-06-09 05:14:00,66.0,64.5,30.03,North,354,0.0,0.0,95,0.00,,,0.00,Wunderground v.1.13,2013-06-09 09:14:00,
2013-06-09 05:20:00,66.0,64.5,30.04,North,354,0.0,0.0,95,0.00,,,0.00,Wunderground v.1.13,2013-06-09 09:20:00,
2013-06-09 05:26:00,65.8,64.3,30.04,North,354,0.0,0.0,95,0.00,,,0.00,Wunderground v.1.13,2013-06-09 09:26:00,
2013-06-09 05:32:00,65.8,64.3,30.04,North,354,0.0,0.0,95,0.00,,,0.00,Wunderground v.1.13,2013-06-09 09:32:00,
2013-06-09 05:38:00,65.8,64.3,30.04,North,354,0.0,0.0,95,0.00,,,0.00,Wunderground v.1.13,2013-06-09 09:38:00,
2013-06-09 05:44:00,65.8,64.3,30.04,North,354,0.0,0.0,95,0.00,,,0.00,Wunderground v.1.13,2013-06-09 09:44:00,
2013-06-09 05:50:00,65.8,64.6,30.04,North,354,0.0,0.0,96,0.00,,,0.00,Wunderground v.1.13,2013-06-09 09:50:00,
2013-06-09 05:56:00,65.8,64.6,30.04,North,354,0.0,0.0,96,0.00,,,0.00,Wunderground v.1.13,2013-06-09 09:56:00,
2013-06-09 06:02:00,65.6,64.4,30.05,North,354,0.0,0.0,96,0.00,,,0.00,Wunderground v.1.13,2013-06-09 10:02:00,
2013-06-09 06:08:00,65.6,64.4,30.05,North,354,0.0,0.0,96,0.00,,,0.00,Wunderground v.1.13,2013-06-09 10:08:00,
2013-06-09 06:14:00,65.6,64.4,30.05,North,354,0.0,0.0,96,0.00,,,0.00,Wunderground v.1.13,2013-06-09 10:14:00,
2013-06-09 06:20:00,65.6,64.4,30.05,North,354,0.0,0.0,96,0.00,,,0.00,Wunderground v.1.13,2013-06-09 10:20:00,
2013-06-09 06:26:00,65.6,64.4,30.05,North,354,0.0,0.0,96,0.00,,,0.00,Wunderground v.1.13,2013-06-09 10:26:00,
2013-06-09 06:32:00,65.6,64.4,30.06,North,354,0.0,0.0,96,0.00,,,0.00,Wunderground v.1.13,2013-06-09 10:32:00,
2013-06-09 06:40:00,65.6,64.4,30.06,North,354,0.0,0.0,96,0.00,,,0.00,Wunderground v.1.13,2013-06-09 10:40:00,
2013-06-09 06:46:00,65.6,64.4,30.06,North,354,0.0,0.0,96,0.00,,,0.00,Wunderground v.1.13,2013-06-09 10:46:00,
2013-06-09 06:54:00,65.8,64.6,30.06,North,354,0.0,0.0,96,0.00,,,0.00,Wunderground v.1.13,2013-06-09 10:54:00,
2013-06-09 07:00:00,65.8,64.6,30.06,North,354,0.0,0.0,96,0.00,,,0.00,Wunderground v.1.13,2013-06-09 11:00:00,
2013-06-09 07:06:00,66.0,65.1,30.06,North,354,0.0,0.0,97,0.00,,,0.00,Wunderground v.1.13,2013-06-09 11:06:00,
2013-06-09 07:12:00,66.1,65.2,30.06,North,354,0.0,0.0,97,0.00,,,0.00,Wunderground v.1.13,2013-06-09 11:12:00,
2013-06-09 07:18:00,66.3,65.4,30.07,North,354,0.0,0.0,97,0.00,,,0.00,Wunderground v.1.13,2013-06-09 11:18:00,
2013-06-09 07:24:00,66.4,65.5,30.07,North,354,0.0,0.0,97,0.00,,,0.00,Wunderground v.1.13,2013-06-09 11:24:00,
2013-06-09 07:30:00,66.6,65.7,30.07,North,354,0.0,0.0,97,0.00,,,0.00,Wunderground v.1.13,2013-06-09 11:30:00,
2013-06-09 07:36:00,66.8,65.9,30.07,North,354,0.0,0.0,97,0.00,,,0.00,Wunderground v.1.13,2013-06-09 11:36:00,
2013-06-09 07:42:00,66.8,65.9,30.07,North,354,0.0,0.0,97,0.00,,,0.00,Wunderground v.1.13,2013-06-09 11:42:00,
2013-06-09 07:48:00,67.1,66.2,30.07,North,354,0.0,0.0,97,0.00,,,0.00,Wunderground v.1.13,2013-06-09 11:48:00,
2013-06-09 07:54:00,67.3,66.4,30.07,North,354,0.0,0.0,97,0.00,,,0.00,Wunderground v.1.13,2013-06-09 11:54:00,
2013-06-09 08:00:00,67.8,67.2,30.07,North,354,0.0,0.0,98,0.00,,,0.00,Wunderground v.1.13,2013-06-09 12:00:00,
2013-06-09 08:06:00,68.3,67.7,30.08,North,354,0.0,0.0,98,0.00,,,0.00,Wunderground v.1.13,2013-06-09 12:06:00,
2013-06-09 08:12:00,68.6,68.0,30.08,North,354,0.0,0.0,98,0.00,,,0.00,Wunderground v.1.13,2013-06-09 12:12:00,
2013-06-09 08:18:00,68.8,68.2,30.08,North,354,0.0,0.0,98,0.00,,,0.00,Wunderground v.1.13,2013-06-09 12:18:00,
2013-06-09 08:24:00,69.1,68.5,30.08,North,354,0.0,0.0,98,0.00,,,0.00,Wunderground v.1.13,2013-06-09 12:24:00,
2013-06-09 08:30:00,69.4,68.8,30.08,North,354,0.0,0.0,98,0.00,,,0.00,Wunderground v.1.13,2013-06-09 12:30:00,
2013-06-09 08:36:00,69.8,69.2,30.08,North,354,0.0,0.0,98,0.00,,,0.00,Wunderground v.1.13,2013-06-09 12:36:00,
2013-06-09 08:42:00,69.9,69.3,30.08,North,354,0.0,0.0,98,0.00,,,0.00,Wunderground v.1.13,2013-06-09 12:42:00,
2013-06-09 08:48:00,70.3,69.7,30.09,North,354,0.0,0.0,98,0.00,,,0.00,Wunderground v.1.13,2013-06-09 12:48:00,
2013-06-09 08:54:00,70.6,70.0,30.09,North,354,0.0,0.0,98,0.00,,,0.00,Wunderground v.1.13,2013-06-09 12:54:00,
2013-06-09 09:00:00,71.1,70.5,30.09,North,354,0.0,0.0,98,0.00,,,0.00,Wunderground v.1.13,2013-06-09 13:00:00,
2013-06-09 09:06:00,72.7,72.1,30.09,North,354,0.0,0.0,98,0.00,,,0.00,Wunderground v.1.13,2013-06-09 13:06:00,
2013-06-09 09:12:00,73.5,72.3,30.09,North,354,0.0,0.0,96,0.00,,,0.00,Wunderground v.1.13,2013-06-09 13:12:00,
2013-06-09 09:18:00,74.0,71.5,30.09,North,354,0.0,0.0,92,0.00,,,0.00,Wunderground v.1.13,2013-06-09 13:18:00,
2013-06-09 09:24:00,74.7,71.2,30.09,North,354,0.0,0.0,89,0.00,,,0.00,Wunderground v.1.13,2013-06-09 13:24:00,
2013-06-09 09:30:00,75.6,71.1,30.09,North,354,0.0,0.0,86,0.00,,,0.00,Wunderground v.1.13,2013-06-09 13:30:00,
2013-06-09 09:36:00,76.1,71.6,30.09,North,354,0.0,0.0,86,0.00,,,0.00,Wunderground v.1.13,2013-06-09 13:36:00,
2013-06-09 09:42:00,76.7,71.5,30.09,North,354,0.0,0.0,84,0.00,,,0.00,Wunderground v.1.13,2013-06-09 13:42:00,
2013-06-09 09:48:00,76.8,71.6,30.08,North,354,0.0,0.0,84,0.00,,,0.00,Wunderground v.1.13,2013-06-09 13:48:00,
2013-06-09 09:54:00,76.7,71.5,30.08,North,354,0.0,0.0,84,0.00,,,0.00,Wunderground v.1.13,2013-06-09 13:54:00,
2013-06-09 10:00:00,76.7,71.5,30.08,North,354,0.0,0.0,84,0.00,,,0.00,Wunderground v.1.13,2013-06-09 14:00:00,
2013-06-09 10:06:00,77.0,71.4,30.07,North,354,0.0,0.0,83,0.00,,,0.00,Wunderground v.1.13,2013-06-09 14:06:00,
2013-06-09 10:12:00,77.6,71.7,30.07,North,354,0.0,0.0,82,0.00,,,0.00,Wunderground v.1.13,2013-06-09 14:12:00,
2013-06-09 10:18:00,77.6,70.9,30.07,North,354,0.0,0.0,80,0.00,,,0.00,Wunderground v.1.13,2013-06-09 14:18:00,
2013-06-09 10:24:00,78.1,71.8,30.07,North,354,0.0,0.0,81,0.00,,,0.00,Wunderground v.1.13,2013-06-09 14:24:00,
2013-06-09 10:30:00,80.1,70.7,30.07,North,354,0.0,0.0,73,0.00,,,0.00,Wunderground v.1.13,2013-06-09 14:30:00,
2013-06-09 10:36:00,79.9,72.4,30.07,North,354,0.0,0.0,78,0.00,,,0.00,Wunderground v.1.13,2013-06-09 14:36:00,
2013-06-09 10:44:00,79.4,71.9,30.07,North,354,0.0,0.0,78,0.00,,,0.00,Wunderground v.1.13,2013-06-09 14:44:00,
2013-06-09 10:50:00,80.3,71.3,30.07,North,354,0.0,0.0,74,0.00,,,0.00,Wunderground v.1.13,2013-06-09 14:50:00,
2013-06-09 10:56:00,81.4,70.7,30.07,North,354,0.0,0.0,70,0.00,,,0.00,Wunderground v.1.13,2013-06-09 14:56:00,
2013-06-09 11:02:00,81.2,71.7,30.07,North,354,0.0,0.0,73,0.00,,,0.00,Wunderground v.1.13,2013-06-09 15:02:00,
2013-06-09 11:08:00,81.4,71.5,30.07,North,354,0.0,0.0,72,0.00,,,0.00,Wunderground v.1.13,2013-06-09 15:08:00,
2013-06-09 11:14:00,81.8,70.6,30.07,North,354,0.0,0.0,69,0.00,,,0.00,Wunderground v.1.13,2013-06-09 15:14:00,
2013-06-09 11:20:00,82.0,72.1,30.07,North,354,0.0,0.0,72,0.00,,,0.00,Wunderground v.1.13,2013-06-09 15:20:00,
2013-06-09 11:26:00,82.6,72.2,30.07,North,354,0.0,0.0,71,0.00,,,0.00,Wunderground v.1.13,2013-06-09 15:26:00,
2013-06-09 11:32:00,82.4,71.6,30.07,North,354,0.0,0.0,70,0.00,,,0.00,Wunderground v.1.13,2013-06-09 15:32:00,
2013-06-09 11:40:00,83.2,69.8,30.07,North,354,0.0,0.0,64,0.00,,,0.00,Wunderground v.1.13,2013-06-09 15:40:00,
2013-06-09 11:46:00,82.4,71.6,30.07,North,354,0.0,0.0,70,0.00,,,0.00,Wunderground v.1.13,2013-06-09 15:46:00,
2013-06-09 11:53:00,83.0,72.2,30.07,North,354,0.0,0.0,70,0.00,,,0.00,Wunderground v.1.13,2013-06-09 15:53:00,
2013-06-09 11:58:00,83.4,71.3,30.07,North,354,0.0,0.0,67,0.00,,,0.00,Wunderground v.1.13,2013-06-09 15:58:00,
2013-06-09 12:06:00,84.7,73.8,30.07,North,354,0.0,0.0,70,0.00,,,0.00,Wunderground v.1.13,2013-06-09 16:06:00,
2013-06-09 12:12:00,83.8,71.2,30.07,North,354,0.0,0.0,66,0.00,,,0.00,Wunderground v.1.13,2013-06-09 16:12:00,
2013-06-09 12:18:00,83.0,71.8,30.07,North,354,0.0,0.0,69,0.00,,,0.00,Wunderground v.1.13,2013-06-09 16:18:00,
2013-06-09 12:24:00,84.7,71.6,30.07,North,354,0.0,0.0,65,0.00,,,0.00,Wunderground v.1.13,2013-06-09 16:24:00,
2013-06-09 12:30:00,85.1,70.6,30.07,North,354,0.0,0.0,62,0.00,,,0.00,Wunderground v.1.13,2013-06-09 16:30:00,
2013-06-09 12:36:00,83.2,72.4,30.06,North,354,0.0,0.0,70,0.00,,,0.00,Wunderground v.1.13,2013-06-09 16:36:00,
2013-06-09 12:42:00,84.1,70.1,30.06,North,354,0.0,0.0,63,0.00,,,0.00,Wunderground v.1.13,2013-06-09 16:42:00,
2013-06-09 12:48:00,84.3,70.8,30.05,North,354,0.0,0.0,64,0.00,,,0.00,Wunderground v.1.13,2013-06-09 16:48:00,
2013-06-09 12:54:00,84.5,70.0,30.05,North,354,0.0,0.0,62,0.00,,,0.00,Wunderground v.1.13,2013-06-09 16:54:00,
2013-06-09 13:00:00,84.1,71.5,30.05,North,354,0.0,0.0,66,0.00,,,0.00,Wunderground v.1.13,2013-06-09 17:00:00,
2013-06-09 13:06:00,85.3,70.3,30.05,North,354,0.0,0.0,61,0.00,,,0.00,Wunderground v.1.13,2013-06-09 17:06:00,
2013-06-09 13:12:00,84.1,70.1,30.05,North,354,0.0,0.0,63,0.00,,,0.00,Wunderground v.1.13,2013-06-09 17:12:00,
2013-06-09 13:18:00,84.0,70.5,30.04,North,354,0.0,0.0,64,0.00,,,0.00,Wunderground v.1.13,2013-06-09 17:18:00,
2013-06-09 13:24:00,83.4,70.8,30.04,North,354,0.0,0.0,66,0.00,,,0.00,Wunderground v.1.13,2013-06-09 17:24:00,
2013-06-09 13:30:00,84.5,70.5,30.04,North,354,0.0,0.0,63,0.00,,,0.00,Wunderground v.1.13,2013-06-09 17:30:00,
2013-06-09 13:36:00,84.7,70.2,30.04,North,354,0.0,0.0,62,0.00,,,0.00,Wunderground v.1.13,2013-06-09 17:36:00,
2013-06-09 13:42:00,84.7,70.7,30.04,North,354,0.0,0.0,63,0.00,,,0.00,Wunderground v.1.13,2013-06-09 17:42:00,
2013-06-09 13:48:00,84.1,71.5,30.03,North,354,0.0,0.0,66,0.00,,,0.00,Wunderground v.1.13,2013-06-09 17:48:00,
2013-06-09 13:54:00,85.3,71.3,30.03,North,354,0.0,0.0,63,0.00,,,0.00,Wunderground v.1.13,2013-06-09 17:54:00,
2013-06-09 14:00:00,84.7,70.2,30.03,North,354,0.0,0.0,62,0.00,,,0.00,Wunderground v.1.13,2013-06-09 18:00:00,
2013-06-09 14:06:00,84.5,70.0,30.02,North,354,0.0,0.0,62,0.00,,,0.00,Wunderground v.1.13,2013-06-09 18:06:00,
2013-06-09 14:12:00,84.3,70.8,30.02,North,354,0.0,0.0,64,0.00,,,0.00,Wunderground v.1.13,2013-06-09 18:12:00,
2013-06-09 14:18:00,84.7,70.2,30.02,North,354,0.0,0.0,62,0.00,,,0.00,Wunderground v.1.13,2013-06-09 18:18:00,
2013-06-09 14:24:00,84.7,72.1,30.02,North,354,0.0,0.0,66,0.00,,,0.00,Wunderground v.1.13,2013-06-09 18:24:00,
2013-06-09 14:30:00,85.1,70.6,30.02,North,354,0.0,0.0,62,0.00,,,0.00,Wunderground v.1.13,2013-06-09 18:30:00,
2013-06-09 14:36:00,84.9,70.4,30.02,North,354,0.0,0.0,62,0.00,,,0.00,Wunderground v.1.13,2013-06-09 18:36:00,
2013-06-09 14:42:00,84.9,69.5,30.02,North,354,0.0,0.0,60,0.00,,,0.00,Wunderground v.1.13,2013-06-09 18:42:00,
2013-06-09 14:48:00,84.3,71.2,30.01,North,354,0.0,0.0,65,0.00,,,0.00,Wunderground v.1.13,2013-06-09 18:48:00,
2013-06-09 14:54:00,84.7,70.2,30.01,North,354,0.0,0.0,62,0.00,,,0.00,Wunderground v.1.13,2013-06-09 18:54:00,
2013-06-09 15:00:00,84.9,69.9,30.01,North,354,0.0,0.0,61,0.00,,,0.00,Wunderground v.1.13,2013-06-09 19:00:00,
2013-06-09 15:06:00,85.3,69.8,30.01,North,354,0.0,0.0,60,0.00,,,0.00,Wunderground v.1.13,2013-06-09 19:06:00,
2013-06-09 15:12:00,85.7,70.7,30.01,North,354,0.0,0.0,61,0.00,,,0.00,Wunderground v.1.13,2013-06-09 19:12:00,
2013-06-09 15:18:00,86.1,70.1,30.00,North,354,0.0,0.0,59,0.00,,,0.00,Wunderground v.1.13,2013-06-09 19:18:00,
2013-06-09 15:24:00,85.9,69.4,30.00,North,354,0.0,0.0,58,0.00,,,0.00,Wunderground v.1.13,2013-06-09 19:24:00,
2013-06-09 15:30:00,85.9,70.9,30.00,North,354,0.0,0.0,61,0.00,,,0.00,Wunderground v.1.13,2013-06-09 19:30:00,
2013-06-09 15:36:00,85.1,70.6,30.00,North,354,0.0,0.0,62,0.00,,,0.00,Wunderground v.1.13,2013-06-09 19:36:00,
2013-06-09 15:42:00,84.5,70.0,30.00,North,354,0.0,0.0,62,0.00,,,0.00,Wunderground v.1.13,2013-06-09 19:42:00,
2013-06-09 15:48:00,84.7,71.6,29.99,North,354,0.0,0.0,65,0.00,,,0.00,Wunderground v.1.13,2013-06-09 19:48:00,
2013-06-09 15:54:00,84.9,70.9,29.99,North,354,0.0,0.0,63,0.00,,,0.00,Wunderground v.1.13,2013-06-09 19:54:00,
2013-06-09 16:00:00,84.5,71.9,29.99,North,354,0.0,0.0,66,0.00,,,0.00,Wunderground v.1.13,2013-06-09 20:00:00,
2013-06-09 16:06:00,84.1,70.1,29.98,North,354,0.0,0.0,63,0.00,,,0.00,Wunderground v.1.13,2013-06-09 20:06:00,
2013-06-09 16:12:00,84.0,70.0,29.98,North,354,0.0,0.0,63,0.00,,,0.00,Wunderground v.1.13,2013-06-09 20:12:00,
2013-06-09 16:18:00,83.8,69.9,29.98,North,354,0.0,0.0,63,0.00,,,0.00,Wunderground v.1.13,2013-06-09 20:18:00,
2013-06-09 16:24:00,84.1,71.1,29.98,North,354,0.0,0.0,65,0.00,,,0.00,Wunderground v.1.13,2013-06-09 20:24:00,
2013-06-09 16:30:00,84.3,70.3,29.98,North,354,0.0,0.0,63,0.00,,,0.00,Wunderground v.1.13,2013-06-09 20:30:00,
2013-06-09 16:36:00,84.7,70.2,29.98,North,354,0.0,0.0,62,0.00,,,0.00,Wunderground v.1.13,2013-06-09 20:36:00,
2013-06-09 16:42:00,84.7,70.2,29.98,North,354,0.0,0.0,62,0.00,,,0.00,Wunderground v.1.13,2013-06-09 20:42:00,
2013-06-09 16:48:00,84.7,70.2,29.98,North,354,0.0,0.0,62,0.00,,,0.00,Wunderground v.1.13,2013-06-09 20:48:00,
2013-06-09 16:54:00,84.9,71.4,29.98,North,354,0.0,0.0,64,0.00,,,0.00,Wunderground v.1.13,2013-06-09 20:54:00,
2013-06-09 17:00:00,84.9,70.4,29.98,North,354,0.0,0.0,62,0.00,,,0.00,Wunderground v.1.13,2013-06-09 21:00:00,
2013-06-09 17:06:00,85.1,71.1,29.98,North,354,0.0,0.0,63,0.00,,,0.00,Wunderground v.1.13,2013-06-09 21:06:00,
2013-06-09 17:12:00,85.1,70.6,29.98,North,354,0.0,0.0,62,0.00,,,0.00,Wunderground v.1.13,2013-06-09 21:12:00,
2013-06-09 17:18:00,85.1,70.1,29.98,North,354,0.0,0.0,61,0.00,,,0.00,Wunderground v.1.13,2013-06-09 21:18:00,
2013-06-09 17:24:00,85.1,70.1,29.98,North,354,0.0,0.0,61,0.00,,,0.00,Wunderground v.1.13,2013-06-09 21:24:00,
2013-06-09 17:30:00,85.1,70.6,29.98,North,354,0.0,0.0,62,0.00,,,0.00,Wunderground v.1.13,2013-06-09 21:30:00,
2013-06-09 17:36:00,85.1,70.6,29.98,North,354,0.0,0.0,62,0.00,,,0.00,Wunderground v.1.13,2013-06-09 21:36:00,
2013-06-09 17:42:00,84.9,70.9,29.98,North,354,0.0,0.0,63,0.00,,,0.00,Wunderground v.1.13,2013-06-09 21:42:00,
2013-06-09 17:48:00,84.9,70.4,29.98,North,354,0.0,0.0,62,0.00,,,0.00,Wunderground v.1.13,2013-06-09 21:48:00,
2013-06-09 17:54:00,84.9,70.4,29.98,North,354,0.0,0.0,62,0.00,,,0.00,Wunderground v.1.13,2013-06-09 21:54:00,
2013-06-09 18:00:00,84.7,70.2,29.98,North,354,0.0,0.0,62,0.00,,,0.00,Wunderground v.1.13,2013-06-09 22:00:00,
2013-06-09 18:06:00,84.7,70.7,29.99,North,354,0.0,0.0,63,0.00,,,0.00,Wunderground v.1.13,2013-06-09 22:06:00,
2013-06-09 18:12:00,84.7,70.7,29.99,North,354,0.0,0.0,63,0.00,,,0.00,Wunderground v.1.13,2013-06-09 22:12:00,
2013-06-09 18:18:00,84.5,70.0,29.99,North,354,0.0,0.0,62,0.00,,,0.00,Wunderground v.1.13,2013-06-09 22:18:00,
2013-06-09 18:24:00,84.3,69.9,29.99,North,354,0.0,0.0,62,0.00,,,0.00,Wunderground v.1.13,2013-06-09 22:24:00,
2013-06-09 18:30:00,84.3,70.3,29.99,North,354,0.0,0.0,63,0.00,,,0.00,Wunderground v.1.13,2013-06-09 22:30:00,
2013-06-09 18:36:00,84.1,70.6,30.00,North,354,0.0,0.0,64,0.00,,,0.00,Wunderground v.1.13,2013-06-09 22:36:00,
2013-06-09 18:42:00,84.1,71.1,30.00,North,354,0.0,0.0,65,0.00,,,0.00,Wunderground v.1.13,2013-06-09 22:42:00,
2013-06-09 18:48:00,84.0,71.0,30.00,North,354,0.0,0.0,65,0.00,,,0.00,Wunderground v.1.13,2013-06-09 22:48:00,
2013-06-09 18:54:00,84.0,71.0,30.00,North,354,0.0,0.0,65,0.00,,,0.00,Wunderground v.1.13,2013-06-09 22:54:00,
2013-06-09 19:00:00,83.8,71.2,30.00,North,354,0.0,0.0,66,0.00,,,0.00,Wunderground v.1.13,2013-06-09 23:00:00,
2013-06-09 19:06:00,83.6,70.6,30.00,North,354,0.0,0.0,65,0.00,,,0.00,Wunderground v.1.13,2013-06-09 23:06:00,
2013-06-09 19:12:00,83.6,71.0,30.00,North,354,0.0,0.0,66,0.00,,,0.00,Wunderground v.1.13,2013-06-09 23:12:00,
2013-06-09 19:18:00,83.4,71.3,29.99,North,354,0.0,0.0,67,0.00,,,0.00,Wunderground v.1.13,2013-06-09 23:18:00,
2013-06-09 19:24:00,83.2,71.1,29.99,North,354,0.0,0.0,67,0.00,,,0.00,Wunderground v.1.13,2013-06-09 23:24:00,
2013-06-09 19:30:00,83.0,70.9,29.99,North,354,0.0,0.0,67,0.00,,,0.00,Wunderground v.1.13,2013-06-09 23:30:00,
2013-06-09 19:36:00,82.8,71.2,29.99,North,354,0.0,0.0,68,0.00,,,0.00,Wunderground v.1.13,2013-06-09 23:36:00,
2013-06-09 19:42:00,82.8,71.2,29.99,North,354,0.0,0.0,68,0.00,,,0.00,Wunderground v.1.13,2013-06-09 23:42:00,
2013-06-09 19:48:00,82.6,71.4,29.99,North,354,0.0,0.0,69,0.00,,,0.00,Wunderground v.1.13,2013-06-09 23:48:00,
2013-06-09 19:54:00,82.4,71.6,29.99,North,354,0.0,0.0,70,0.00,,,0.00,Wunderground v.1.13,2013-06-09 23:54:00,
2013-06-09 20:00:00,82.2,71.4,29.99,North,354,0.0,0.0,70,0.00,,,0.00,Wunderground v.1.13,2013-06-10 00:00:00,
2013-06-09 20:06:00,82.0,71.7,29.99,North,354,0.0,0.0,71,0.00,,,0.00,Wunderground v.1.13,2013-06-10 00:06:00,
2013-06-09 20:12:00,81.8,71.9,29.99,North,354,0.0,0.0,72,0.00,,,0.00,Wunderground v.1.13,2013-06-10 00:12:00,
2013-06-09 20:18:00,81.6,71.7,29.99,North,354,0.0,0.0,72,0.00,,,0.00,Wunderground v.1.13,2013-06-10 00:18:00,
2013-06-09 20:24:00,81.4,71.9,29.99,North,354,0.0,0.0,73,0.00,,,0.00,Wunderground v.1.13,2013-06-10 00:24:00,
2013-06-09 20:30:00,81.1,71.6,29.99,North,354,0.0,0.0,73,0.00,,,0.00,Wunderground v.1.13,2013-06-10 00:30:00,
2013-06-09 20:36:00,80.9,72.2,30.00,North,354,0.0,0.0,75,0.00,,,0.00,Wunderground v.1.13,2013-06-10 00:36:00,
2013-06-09 20:42:00,80.7,72.8,30.00,North,354,0.0,0.0,77,0.00,,,0.00,Wunderground v.1.13,2013-06-10 00:42:00,
2013-06-09 20:48:00,80.3,72.4,30.01,North,354,0.0,0.0,77,0.00,,,0.00,Wunderground v.1.13,2013-06-10 00:48:00,
2013-06-09 20:54:00,79.8,71.2,30.01,North,354,0.0,0.0,75,0.00,,,0.00,Wunderground v.1.13,2013-06-10 00:54:00,
2013-06-09 21:00:00,79.4,71.2,30.01,North,354,0.0,0.0,76,0.00,,,0.00,Wunderground v.1.13,2013-06-10 01:00:00,
2013-06-09 21:06:00,78.6,69.6,30.02,North,354,0.0,0.0,74,0.00,,,0.01,Wunderground v.1.13,2013-06-10 01:06:00,
2013-06-09 21:12:00,78.1,69.5,30.02,North,354,0.0,0.0,75,0.07,,,0.02,Wunderground v.1.13,2013-06-10 01:12:00,
2013-06-09 21:18:00,77.6,69.4,30.03,North,354,0.0,0.0,76,0.07,,,0.02,Wunderground v.1.13,2013-06-10 01:18:00,
2013-06-09 21:24:00,76.8,69.0,30.03,North,354,0.0,0.0,77,0.04,,,0.02,Wunderground v.1.13,2013-06-10 01:24:00,
2013-06-09 21:30:00,76.1,69.5,30.03,North,354,0.0,0.0,80,0.00,,,0.02,Wunderground v.1.13,2013-06-10 01:30:00,
2013-06-09 21:36:00,75.4,69.2,30.03,North,354,0.0,0.0,81,0.00,,,0.02,Wunderground v.1.13,2013-06-10 01:36:00,
2013-06-09 21:42:00,75.1,69.6,30.03,North,354,0.0,0.0,83,0.00,,,0.02,Wunderground v.1.13,2013-06-10 01:42:00,
2013-06-09 21:48:00,74.6,69.4,30.02,North,354,0.0,0.0,84,0.00,,,0.03,Wunderground v.1.13,2013-06-10 01:48:00,
2013-06-09 21:54:00,74.2,69.4,30.02,North,354,0.0,0.0,85,0.00,,,0.03,Wunderground v.1.13,2013-06-10 01:54:00,
2013-06-09 22:00:00,73.9,69.4,30.02,North,354,0.0,0.0,86,0.00,,,0.03,Wunderground v.1.13,2013-06-10 02:00:00,
2013-06-09 22:06:00,73.7,69.6,30.03,North,354,0.0,0.0,87,0.00,,,0.03,Wunderground v.1.13,2013-06-10 02:06:00,
2013-06-09 22:12:00,73.5,69.7,30.03,North,354,0.0,0.0,88,0.00,,,0.03,Wunderground v.1.13,2013-06-10 02:12:00,
2013-06-09 22:18:00,73.3,69.5,30.03,North,354,0.0,0.0,88,0.00,,,0.03,Wunderground v.1.13,2013-06-10 02:18:00,
2013-06-09 22:24:00,73.2,69.4,30.03,North,354,0.0,0.0,88,0.00,,,0.03,Wunderground v.1.13,2013-06-10 02:24:00,
2013-06-09 22:30:00,73.0,69.6,30.03,North,354,0.0,0.0,89,0.00,,,0.03,Wunderground v.1.13,2013-06-10 02:30:00,
2013-06-09 22:36:00,73.0,69.9,30.03,North,354,0.0,0.0,90,0.00,,,0.03,Wunderground v.1.13,2013-06-10 02:36:00,
2013-06-09 22:42:00,72.8,69.7,30.03,North,354,0.0,0.0,90,0.00,,,0.03,Wunderground v.1.13,2013-06-10 02:42:00,
2013-06-09 22:48:00,72.8,69.7,30.03,North,354,0.0,0.0,90,0.00,,,0.03,Wunderground v.1.13,2013-06-10 02:48:00,
2013-06-09 22:54:00,72.7,69.6,30.03,North,354,0.0,0.0,90,0.00,,,0.03,Wunderground v.1.13,2013-06-10 02:54:00,
2013-06-09 23:00:00,72.7,69.9,30.03,North,354,0.0,0.0,91,0.00,,,0.03,Wunderground v.1.13,2013-06-10 03:00:00,
2013-06-09 23:06:00,72.5,69.7,30.04,North,354,0.0,0.0,91,0.00,,,0.03,Wunderground v.1.13,2013-06-10 03:06:00,
2013-06-09 23:12:00,72.5,69.7,30.04,North,354,0.0,0.0,91,0.00,,,0.03,Wunderground v.1.13,2013-06-10 03:12:00,
2013-06-09 23:18:00,72.5,69.7,30.03,North,354,0.0,0.0,91,0.00,,,0.03,Wunderground v.1.13,2013-06-10 03:18:00,
2013-06-09 23:24:00,72.3,69.5,30.03,North,354,0.0,0.0,91,0.00,,,0.03,Wunderground v.1.13,2013-06-10 03:24:00,
2013-06-09 23:30:00,72.3,69.8,30.03,North,354,0.0,0.0,92,0.00,,,0.03,Wunderground v.1.13,2013-06-10 03:30:00,
2013-06-09 23:36:00,72.3,69.8,30.03,North,354,0.0,0.0,92,0.00,,,0.03,Wunderground v.1.13,2013-06-10 03:36:00,
2013-06-09 23:42:00,72.3,69.8,30.03,North,354,0.0,0.0,92,0.00,,,0.03,Wunderground v.1.13,2013-06-10 03:42:00,
2013-06-09 23:48:00,72.3,69.8,30.02,North,354,0.0,0.0,92,0.00,,,0.03,Wunderground v.1.13,2013-06-10 03:48:00,
2013-06-09 23:54:00,72.1,69.6,30.02,North,354,0.0,0.0,92,0.00,,,0.03,Wunderground v.1.13,2013-06-10 03:54:00,